Date String (YYYY-MM-DD hh:mm:ss) UTC,Instrument flags,absolute air pressure of the measurement (hPa),sample flow rate (lpm),inlet stack bypass flow (lpm),air temperature of the measurement (°C),ambient temperature measured by the external sensor (°C),aerosol sample conditioner tube jacket temperature (°C),OPC LED temperature (°C),internal box temperature (°C),relative humidity of the measurement (%),span deviation,mass concentration of particles derived from Lorenz-Mie calculation of OPC scattering (μg/m³),mass concentration of particles derived from Lorenz-Mie calculation of OPC scattering (μg/m³),mass concentration of particles derived from Lorenz-Mie calculation of OPC scattering (μg/m³)
DateTimeUTC,F1_M11,P_M11,Q1_M11,Q2_M11,T1_M11,T2_M11,T3_M11,T4_M11,T5_M11,U1_M11,ZSPAN_M11,X0_M11,X2_M11,X1_M11
2024-02-09 20:00:00,SystemResetWarning,0822.5,5.00,000.00,020.5,020.2,000.0,028.7,022.2,19.0,0000.0,0011.69,0004.37,0004.03
2024-02-09 20:01:00,SystemResetWarning,0822.5,5.00,000.00,020.5,020.1,000.0,028.7,022.2,19.0,0000.0,0011.74,0004.38,0004.03
2024-02-09 20:02:00,SystemResetWarning,0822.4,5.00,000.00,020.4,020.0,000.0,028.7,022.1,18.8,0000.0,0011.43,0004.40,0004.02
2024-02-09 20:03:00,SystemResetWarning,0822.4,5.00,000.00,020.4,020.0,000.0,028.7,022.1,18.9,0000.0,0011.04,0004.41,0004.03
2024-02-09 20:04:00,SystemResetWarning,0822.4,5.00,000.00,020.4,020.0,000.0,028.7,022.1,19.0,0000.0,0011.81,0004.39,0004.02
2024-02-09 20:05:00,SystemResetWarning,0822.4,5.00,000.00,020.4,020.0,000.0,028.7,022.1,19.0,0000.0,0011.91,0004.41,0004.02
2024-02-09 20:06:00,SystemResetWarning,0822.4,4.99,000.00,020.4,020.0,000.0,028.7,022.1,18.9,0000.0,0011.30,0004.45,0004.01
2024-02-09 20:07:00,SystemResetWarning,0822.5,5.00,000.00,020.4,020.0,000.0,028.7,022.1,18.9,0000.0,0011.51,0004.50,0004.02
2024-02-09 20:08:00,SystemResetWarning,0822.4,5.02,000.00,020.4,020.0,000.0,028.7,022.1,19.3,0000.0,0011.42,0004.49,0004.03
2024-02-09 20:09:00,SystemResetWarning,0822.4,5.01,000.00,020.4,020.0,000.0,028.7,022.1,19.1,0000.0,0010.41,0004.50,0004.03
2024-02-09 20:10:00,SystemResetWarning,0822.4,4.99,000.00,020.4,020.0,000.0,028.7,022.1,19.2,0000.0,0010.11,0004.55,0004.06
2024-02-09 20:11:00,SystemResetWarning,0822.4,4.99,000.00,020.4,020.0,000.0,028.7,022.1,19.2,0000.0,0010.50,0004.56,0004.08
2024-02-09 20:12:00,SystemResetWarning,0822.4,5.00,000.00,020.4,020.0,000.0,028.7,022.1,19.4,0000.0,0011.33,0004.57,0004.10
2024-02-09 20:13:00,SystemResetWarning,0822.4,5.00,000.00,020.4,020.0,000.0,028.7,022.1,19.4,0000.0,0011.40,0004.59,0004.13
2024-02-09 20:14:00,SystemResetWarning,0822.4,5.00,000.00,020.4,020.0,000.0,028.7,022.1,18.9,0000.0,0011.47,0004.62,0004.14
2024-02-09 20:15:00,SystemResetWarning,0822.4,5.01,000.00,020.4,020.0,000.0,028.8,022.2,18.9,0000.0,0010.46,0004.63,0004.16
2024-02-09 20:16:00,SystemResetWarning,0822.4,5.01,000.00,020.4,020.0,000.0,028.8,022.2,19.2,0000.0,0009.96,0004.68,0004.19
2024-02-09 20:17:00,SystemResetWarning,0822.4,5.01,000.00,020.4,020.0,000.0,028.8,022.2,19.0,0000.0,0010.45,0004.69,0004.22
2024-02-09 20:18:00,SystemResetWarning,0822.4,5.00,000.00,020.5,020.0,000.0,028.8,022.2,18.7,0000.0,0010.23,0004.65,0004.22
2024-02-09 20:19:00,SystemResetWarning,0822.4,5.00,000.00,020.5,020.1,000.0,028.8,022.2,18.9,0000.0,0010.08,0004.61,0004.18
2024-02-09 20:20:00,SystemResetWarning,0822.4,4.99,000.00,020.5,020.1,000.0,028.8,022.2,19.0,0000.0,0010.09,0004.61,0004.17
2024-02-09 20:21:00,SystemResetWarning,0822.3,5.00,000.00,020.5,020.1,000.0,028.8,022.2,19.0,0000.0,0010.06,0004.60,0004.16
2024-02-09 20:22:00,SystemResetWarning,0822.4,5.00,000.00,020.5,020.1,000.0,028.8,022.2,19.1,0000.0,0010.29,0004.58,0004.15
2024-02-09 20:23:00,SystemResetWarning,0822.4,5.01,000.00,020.5,020.1,000.0,028.8,022.3,19.2,0000.0,0009.66,0004.56,0004.15
2024-02-09 20:24:00,SystemResetWarning,0822.4,5.00,000.00,020.5,020.1,000.0,028.8,022.3,19.0,0000.0,0009.61,0004.53,0004.14
2024-02-09 20:25:00,SystemResetWarning,0822.4,5.00,000.00,020.5,020.1,000.0,028.8,022.3,19.3,0000.0,0009.57,0004.51,0004.14
2024-02-09 20:26:00,SystemResetWarning,0822.4,5.00,000.00,020.5,020.2,000.0,028.8,022.3,19.4,0000.0,0010.42,0004.57,0004.15
2024-02-09 20:27:00,SystemResetWarning,0822.3,5.00,000.00,020.5,020.2,000.0,028.8,022.3,19.4,0000.0,0010.43,0004.56,0004.16
2024-02-09 20:28:00,SystemResetWarning,0822.4,5.00,000.00,020.5,020.2,000.0,028.8,022.3,19.0,0000.0,0009.82,0004.53,0004.15
2024-02-09 20:29:00,SystemResetWarning,0822.3,5.00,000.00,020.6,020.2,000.0,028.8,022.3,18.8,0000.0,0010.65,0004.55,0004.15
2024-02-09 20:30:00,SystemResetWarning,0822.3,5.00,000.00,020.6,020.2,000.0,028.8,022.3,19.1,0000.0,0011.11,0004.59,0004.18
2024-02-09 20:31:00,SystemResetWarning,0822.3,4.99,000.00,020.6,020.2,000.0,028.8,022.3,18.8,0000.0,0012.26,0004.60,0004.20
2024-02-09 20:32:00,SystemResetWarning,0822.2,5.00,000.00,020.6,020.2,000.0,028.9,022.3,18.8,0000.0,0012.73,0004.61,0004.18
2024-02-09 20:33:00,SystemResetWarning,0822.3,5.00,000.00,020.6,020.2,000.0,028.9,022.3,18.6,0000.0,0012.10,0004.63,0004.18
2024-02-09 20:34:00,SystemResetWarning,0822.2,5.00,000.00,020.6,020.2,000.0,028.9,022.3,18.5,0000.0,0011.84,0004.65,0004.17
2024-02-09 20:35:00,SystemResetWarning,0822.2,5.00,000.00,020.6,020.2,000.0,028.9,022.3,18.4,0000.0,0012.08,0004.63,0004.16
2024-02-09 20:36:00,SystemResetWarning,0822.2,5.00,000.00,020.6,020.2,000.0,028.9,022.3,18.6,0000.0,0012.47,0004.64,0004.15
2024-02-09 20:37:00,SystemResetWarning,0822.2,5.00,000.00,020.6,020.2,000.0,028.9,022.3,18.7,0000.0,0011.81,0004.59,0004.13
2024-02-09 20:38:00,SystemResetWarning,0822.1,5.01,000.00,020.6,020.2,000.0,028.9,022.4,19.0,0000.0,0011.76,0004.56,0004.12
2024-02-09 20:39:00,SystemResetWarning,0822.1,5.01,000.00,020.6,020.2,000.0,028.9,022.4,18.9,0000.0,0011.67,0004.57,0004.11
2024-02-09 20:40:00,SystemResetWarning,0822.1,4.98,000.00,020.6,020.2,000.0,028.9,022.4,18.8,0000.0,0011.11,0004.60,0004.11
2024-02-09 20:41:00,SystemResetWarning,0822.1,5.00,000.00,020.6,020.2,000.0,028.9,022.4,18.2,0000.0,0010.88,0004.62,0004.12
2024-02-09 20:42:00,SystemResetWarning,0822.1,5.02,000.00,020.6,020.2,000.0,028.9,022.4,18.2,0000.0,0010.61,0004.64,0004.14
2024-02-09 20:43:00,SystemResetWarning,0822.1,5.00,000.00,020.6,020.2,000.0,028.9,022.4,18.4,0000.0,0010.33,0004.64,0004.16
2024-02-09 20:44:00,SystemResetWarning,0822.2,4.99,000.00,020.6,020.2,000.0,029.0,022.4,18.5,0000.0,0010.28,0004.64,0004.17
2024-02-09 20:45:00,SystemResetWarning,0822.1,4.99,000.00,020.6,020.2,000.0,029.0,022.3,18.1,0000.0,0010.23,0004.62,0004.16
2024-02-09 20:46:00,SystemResetWarning,0822.1,5.00,000.00,020.6,020.2,000.0,029.0,022.3,18.2,0000.0,0010.17,0004.65,0004.17
2024-02-09 20:47:00,SystemResetWarning,0822.1,5.01,000.00,020.6,020.2,000.0,029.0,022.3,18.3,0000.0,0010.98,0004.66,0004.17
2024-02-09 20:48:00,SystemResetWarning,0822.1,5.00,000.00,020.6,020.2,000.0,029.0,022.3,18.5,0000.0,0011.59,0004.65,0004.14
2024-02-09 20:49:00,SystemResetWarning,0822.1,5.00,000.00,020.6,020.2,000.0,029.0,022.3,18.5,0000.0,0011.63,0004.62,0004.10
2024-02-09 20:50:00,SystemResetWarning,0822.0,5.00,000.00,020.6,020.2,000.0,029.0,022.3,18.6,0000.0,0011.98,0004.61,0004.07
2024-02-09 20:51:00,SystemResetWarning,0822.0,4.99,000.00,020.6,020.2,000.0,029.0,022.3,18.8,0000.0,0011.80,0004.58,0004.06
2024-02-09 20:52:00,SystemResetWarning,0822.0,4.99,000.00,020.6,020.2,000.0,029.0,022.4,18.7,0000.0,0011.71,0004.56,0004.04
2024-02-09 20:53:00,SystemResetWarning,0822.0,5.01,000.00,020.6,020.2,000.0,029.0,022.4,18.4,0000.0,0011.49,0004.53,0004.00
2024-02-09 20:54:00,SystemResetWarning,0821.9,5.00,000.00,020.6,020.2,000.0,029.0,022.3,18.5,0000.0,0011.38,0004.52,0003.97
2024-02-09 20:55:00,SystemResetWarning,0822.0,5.00,000.00,020.6,020.2,000.0,029.0,022.4,18.6,0000.0,0011.35,0004.49,0003.94
2024-02-09 20:56:00,SystemResetWarning,0821.9,5.00,000.00,020.6,020.2,000.0,029.0,022.4,18.6,0000.0,0011.33,0004.47,0003.94
2024-02-09 20:57:00,SystemResetWarning,0822.0,5.00,000.00,020.6,020.2,000.0,029.0,022.4,18.9,0000.0,0011.39,0004.48,0003.97
2024-02-09 20:58:00,SystemResetWarning,0821.9,5.00,000.00,020.6,020.2,000.0,029.0,022.4,18.6,0000.0,0010.59,0004.49,0003.99
2024-02-09 20:59:00,SystemResetWarning,0821.9,5.00,000.00,020.6,020.2,000.0,029.0,022.4,18.5,0000.0,0009.80,0004.50,0004.04
